Wind_Speed
6 6 7 7 7 7 7 6 6 6 6 6 6 8 10 11 11 11 11 10 8 6 3 2 1 3 3 1 3 1 1 4 8 8 2 4 2 4 1 11 10 11 13 10 10
4 4 4 4 4 5 5 5 6 8 7 7 7 7 8 10 11 12 10 12 11 9 7 4 2 3 3 2 2 1 5 3 8 7 7 9 6 5 2 10 11 10 9 9 9
6 8 8 8 7 7 8 7 7 7 8 9 8 9 9 9 10 11 12 12 13 12 11 10 6 4 5 5 4 5 8 6 5 14 14 9 11 9 5 8 11 8 7 8 9
11 12 13 13 12 11 11 11 10 10 9 9 10 10 10 11 11 11 12 13 14 15 14 13 11 9 8 5 5 4 7 7 8 20 8 12 11 12 6 5 7 8 6 7 8
12 14 15 15 15 16 16 15 14 15 14 13 12 12 12 14 15 14 15 15 15 17 18 16 14 11 11 8 9 8 8 7 6 11 5 13 12 12 8 6 5 5 5 7 7
12 13 14 13 13 15 16 17 18 19 19 19 18 17 16 18 17 16 16 18 17 17 20 20 18 14 12 10 10 12 9 9 10 5 2 11 11 9 7 9 6 5 4 5 6
15 15 15 16 17 18 18 18 19 19 19 19 20 20 18 20 19 18 19 20 19 18 21 22 20 16 14 10 12 13 10 11 11 10 8 12 15 10 10 10 9 7 6 4 6
21 22 22 22 20 19 19 21 20 19 18 18 18 18 20 21 21 21 21 20 21 21 21 22 23 18 15 13 13 15 14 12 13 13 7 5 13 17 15 15 11 11 10 7 8
24 25 25 25 24 23 22 21 20 18 17 18 18 19 22 22 22 23 24 22 21 22 22 22 22 20 20 17 17 19 20 19 17 19 14 13 12 17 18 20 16 15 13 11 10
26 27 27 26 25 25 25 23 21 20 19 19 20 20 20 20 21 21 22 21 20 21 22 21 19 20 22 23 20 21 23 23 20 21 18 16 11 21 19 19 19 21 18 15 12
26 27 29 29 26 25 26 24 20 19 19 19 19 20 19 19 20 20 20 20 21 20 19 17 17 19 24 26 24 21 24 25 25 24 23 16 16 23 24 24 25 22 19 17 16
26 28 28 27 25 24 23 22 19 18 17 17 18 19 19 20 20 18 20 20 19 19 18 17 18 22 25 26 23 21 24 26 25 27 24 32 22 17 28 32 31 28 25 23 18
26 27 26 24 22 20 18 18 18 17 16 15 15 17 17 15 16 16 18 18 18 17 17 18 19 24 27 27 24 21 22 25 25 26 28 30 28 23 17 38 35 29 31 29 22
25 25 24 21 20 19 17 18 16 15 16 15 16 16 12 13 13 12 12 13 16 13 16 19 22 26 26 25 26 22 21 25 25 27 28 27 26 23 24 27 33 32 30 27 24
23 21 22 21 17 15 17 18 16 14 15 17 14 12 12 11 11 11 11 10 10 11 14 18 21 22 22 23 26 21 20 24 25 25 27 26 27 23 26 27 34 34 32 27 29
23 21 23 20 16 15 16 16 15 15 16 13 11 11 13 13 12 10 9 8 8 11 14 17 19 21 21 24 24 22 19 21 22 24 22 22 26 25 17 21 32 36 34 30 28
23 20 21 21 18 17 16 17 16 14 11 8 8 9 12 13 14 14 8 7 6 10 14 13 17 20 21 22 22 19 18 21 23 23 19 16 18 21 21 20 22 36 29 29 32
23 21 20 21 20 18 18 18 15 14 10 9 9 6 8 12 15 16 12 4 6 10 10 11 14 16 19 20 19 18 19 20 22 21 19 17 14 14 18 19 24 32 43 38 37
25 21 21 21 22 20 19 16 15 15 12 12 9 6 7 9 13 15 15 10 10 9 8 11 15 18 20 19 22 19 19 18 20 20 19 16 13 6 11 18 21 29 32 34 35
27 25 23 22 24 21 18 15 15 15 15 14 10 9 8 8 10 13 15 15 12 11 11 15 16 20 21 21 23 21 20 22 22 23 20 17 13 8 8 15 19 19 30 29 30
29 28 26 25 24 22 19 15 16 15 17 16 12 11 10 10 11 15 16 16 18 18 15 18 19 21 25 25 26 24 23 22 23 25 21 17 11 13 7 4 11 18 24 28 36
30 28 28 26 26 23 22 18 15 17 18 17 13 11 13 12 17 20 18 19 20 22 22 21 26 26 27 30 31 29 26 26 28 23 20 18 11 13 10 9 7 9 18 28 33
30 29 27 27 26 23 24 20 17 16 17 15 13 12 17 14 13 17 20 20 16 18 19 24 27 31 31 32 32 34 33 30 29 26 19 21 15 6 14 8 7 5 10 28 42
31 29 27 26 26 25 24 21 19 18 17 14 12 12 15 15 18 18 18 13 12 15 17 22 29 32 36 34 35 38 36 33 33 29 28 25 21 12 16 9 4 6 1 3 8
32 29 28 25 25 25 24 21 21 21 17 14 10 12 14 18 18 18 16 13 13 14 17 21 19 31 38 41 41 40 37 36 33 28 26 27 26 16 14 13 11 10 8 3 8
31 28 28 27 26 26 25 22 22 23 17 12 13 15 16 19 17 16 16 15 14 16 17 19 19 23 28 38 42 45 39 37 38 31 25 25 26 21 13 19 13 15 14 10 9
39 31 29 29 28 28 26 26 25 23 18 14 16 16 17 16 15 14 16 17 16 17 18 17 17 18 23 31 46 45 45 41 39 31 28 26 27 26 21 15 15 16 14 13 8
Wind_Direction
58 46 45 46 44 40 32 21 6 347 335 317 295 275 265 261 257 255 262 272 275 284 309 337 318 308 341 265 233 208 120 148 129 110 85 152 158 197 120 89 69 68 69 65 72
2 7 5 356 346 347 355 353 351 338 326 318 313 303 292 278 267 262 259 264 270 271 279 269 279 289 297 225 325 30 281 235 243 331 294 204 158 227 187 93 77 68 71 71 77
305 309 308 306 302 305 308 307 312 311 316 320 316 313 303 298 287 277 270 263 264 263 262 264 259 257 259 272 175 238 277 339 306 316 300 196 168 207 195 112 100 81 71 72 86
290 287 288 288 287 285 284 286 286 287 291 297 294 292 293 292 285 283 277 273 267 267 261 261 258 249 254 265 238 198 261 289 350 327 253 181 180 174 181 147 112 97 91 92 95
308 299 293 289 280 276 278 276 274 275 276 278 274 275 274 280 289 286 281 276 271 270 270 266 264 261 262 265 264 234 241 270 327 28 162 163 194 168 185 185 150 122 111 105 127
338 329 318 311 303 293 284 277 273 271 272 272 271 266 269 280 280 281 282 282 279 273 272 273 274 272 267 266 269 271 244 261 262 291 245 183 216 187 182 175 182 162 126 115 116
348 341 330 323 313 303 294 286 280 276 272 269 264 265 261 270 277 278 278 278 276 272 270 275 275 273 268 266 259 265 254 246 261 262 223 173 185 188 184 196 196 196 169 153 133
343 340 335 330 323 314 301 294 286 279 274 265 260 258 261 262 263 267 270 270 270 270 267 269 274 274 272 261 253 254 252 239 251 249 259 193 207 206 209 205 208 203 182 180 145
341 337 333 328 323 317 306 300 289 278 272 266 264 263 267 264 266 264 269 269 264 265 266 268 272 275 272 263 249 249 251 250 248 252 243 264 273 215 207 199 197 210 191 188 171
337 334 330 326 319 312 308 304 295 282 273 266 266 273 270 272 270 265 266 262 262 264 265 269 272 269 264 259 248 241 246 248 243 245 251 263 261 213 203 210 208 221 205 188 186
333 331 326 319 315 308 305 304 297 287 281 275 270 274 275 274 272 268 261 264 264 258 257 258 255 252 251 254 255 248 246 247 247 242 233 248 233 226 215 218 203 221 211 197 192
330 333 327 320 315 312 308 301 297 294 290 278 276 275 278 279 275 265 264 266 256 253 249 243 239 244 250 254 254 252 250 250 252 251 241 238 250 256 244 221 209 212 208 224 190
327 328 324 321 318 318 314 310 301 298 292 288 286 284 286 277 268 268 267 264 260 253 253 250 242 244 250 254 255 255 256 257 253 256 255 249 252 263 260 214 210 206 218 223 197
323 326 323 319 320 318 314 312 298 295 293 291 290 290 294 284 282 275 262 253 255 263 267 255 249 246 250 257 259 256 253 259 256 253 258 252 249 256 246 243 216 204 208 215 217
320 322 324 321 323 318 313 306 301 297 288 289 298 298 294 295 289 285 279 271 259 255 251 252 251 255 257 253 254 255 249 253 259 256 258 256 256 256 251 250 219 203 204 213 217
314 312 318 320 318 312 314 310 304 299 290 289 294 300 307 310 304 290 279 268 267 272 254 250 255 256 246 245 246 246 244 248 255 257 259 260 260 253 264 271 209 214 211 216 226
307 306 305 317 316 314 308 314 306 292 288 284 287 303 308 310 306 300 283 271 281 273 273 270 258 249 245 244 246 244 239 242 247 248 253 259 267 270 270 267 251 216 215 213 220
298 297 303 304 306 308 309 307 304 287 274 262 267 287 305 310 302 298 299 291 279 273 273 272 256 245 235 237 239 232 232 238 250 250 250 249 255 274 275 256 247 244 209 211 211
291 290 298 302 298 298 303 302 301 291 279 270 273 298 302 300 289 293 292 285 282 282 275 264 246 238 225 227 233 225 231 237 245 243 244 240 234 288 304 251 243 224 219 208 207
284 283 288 301 292 288 296 295 288 287 283 280 287 295 295 296 280 280 280 280 282 278 258 253 241 230 224 225 232 230 229 229 232 236 238 232 238 257 302 227 222 210 219 207 214
277 276 280 290 294 281 284 283 279 279 279 281 286 295 291 289 288 287 277 268 270 265 252 239 235 228 221 222 227 229 231 234 237 236 233 220 222 237 253 143 203 221 215 232 213
270 268 274 282 290 273 268 276 275 273 274 276 278 286 286 281 289 289 280 267 267 265 249 240 230 216 222 225 226 225 231 231 237 234 226 219 202 215 237 272 141 153 181 211 204
263 263 266 277 278 261 256 265 267 269 274 279 277 274 281 286 284 282 276 275 280 278 271 245 236 225 221 229 227 231 230 234 239 242 237 233 210 221 184 240 142 91 128 181 194
258 257 262 272 264 254 252 261 260 261 267 267 274 271 275 285 293 292 280 275 274 278 282 275 244 234 224 225 229 229 231 231 230 239 245 244 225 201 199 184 264 292 45 152 180
254 253 256 260 254 245 245 250 252 258 260 259 255 266 269 285 290 280 273 272 269 278 275 270 261 243 229 227 229 226 228 233 234 233 241 248 227 209 214 178 195 223 243 252 327
252 249 249 247 240 237 239 243 246 252 258 248 254 261 276 284 287 270 263 263 272 283 282 268 266 261 245 236 234 228 223 230 235 230 238 249 227 204 233 182 199 217 239 235 260
238 239 241 240 233 234 234 236 242 249 252 241 250 264 270 281 285 265 267 277 281 286 284 279 269 273 258 245 234 231 223 226 227 233 245 245 222 213 209 230 211 224 237 249 250
Height
5887 5887 5887 5886 5886 5886 5885 5885 5885 5885 5884 5884 5884 5884 5885 5885 5886 5887 5887 5888 5889 5890 5891 5891 5891 5891 5892 5892 5892 5893 5895 5896 5895 5895 5896 5896 5898 5898 5900 5898 5899 5898 5898 5898 5898
5887 5887 5887 5887 5886 5886 5885 5885 5885 5884 5883 5883 5883 5883 5883 5884 5884 5885 5887 5886 5887 5889 5889 5890 5890 5890 5890 5891 5892 5893 5895 5895 5895 5895 5894 5893 5896 5898 5901 5900 5899 5900 5900 5900 5900
5887 5886 5886 5886 5886 5885 5885 5884 5884 5883 5883 5882 5882 5883 5882 5883 5883 5883 5884 5884 5885 5886 5888 5888 5889 5890 5889 5890 5891 5892 5893 5893 5893 5893 5894 5893 5894 5896 5899 5900 5899 5901 5902 5903 5902
5885 5885 5884 5884 5884 5883 5883 5883 5882 5882 5881 5881 5881 5881 5881 5881 5883 5882 5882 5882 5882 5883 5885 5886 5887 5888 5889 5889 5890 5893 5892 5893 5892 5892 5886 5892 5894 5896 5899 5901 5901 5902 5903 5904 5904
5883 5882 5881 5880 5880 5880 5880 5879 5879 5879 5879 5879 5879 5879 5879 5879 5879 5879 5879 5880 5880 5881 5882 5883 5885 5887 5888 5889 5889 5889 5891 5892 5892 5894 5892 5892 5894 5896 5898 5901 5904 5904 5904 5904 5905
5881 5880 5879 5878 5877 5877 5876 5875 5875 5875 5875 5875 5875 5875 5876 5877 5876 5877 5877 5877 5878 5879 5879 5880 5882 5885 5887 5888 5888 5888 5890 5892 5892 5894 5894 5895 5895 5895 5899 5900 5904 5904 5905 5906 5907
5879 5878 5877 5875 5875 5874 5872 5871 5870 5870 5870 5870 5870 5870 5872 5872 5872 5872 5873 5874 5874 5875 5876 5876 5878 5882 5885 5887 5887 5887 5889 5890 5891 5891 5892 5894 5896 5896 5898 5900 5902 5905 5905 5908 5909
5877 5876 5874 5872 5871 5869 5867 5866 5865 5865 5865 5865 5865 5866 5866 5866 5867 5868 5869 5870 5870 5871 5873 5873 5874 5877 5881 5884 5885 5885 5886 5888 5889 5890 5891 5893 5894 5894 5895 5898 5901 5904 5905 5907 5909
5874 5873 5871 5869 5867 5864 5862 5861 5861 5861 5861 5861 5861 5861 5862 5862 5863 5863 5863 5865 5866 5867 5868 5870 5871 5874 5876 5878 5880 5881 5882 5884 5886 5886 5889 5891 5891 5892 5894 5896 5899 5902 5904 5906 5908
5872 5870 5868 5866 5863 5860 5858 5857 5856 5856 5856 5857 5856 5857 5857 5857 5857 5858 5858 5859 5861 5862 5864 5866 5868 5868 5869 5870 5874 5876 5878 5880 5882 5884 5885 5886 5888 5890 5892 5893 5896 5898 5902 5904 5906
5869 5866 5864 5861 5858 5855 5853 5852 5853 5853 5852 5851 5852 5851 5851 5851 5852 5852 5853 5854 5856 5857 5859 5862 5863 5863 5862 5864 5867 5872 5873 5875 5877 5879 5882 5884 5886 5886 5889 5890 5893 5896 5898 5902 5904
5865 5863 5860 5857 5853 5851 5848 5847 5847 5847 5846 5846 5846 5846 5846 5846 5847 5848 5849 5850 5851 5852 5855 5857 5858 5857 5858 5859 5862 5866 5869 5870 5873 5873 5878 5878 5880 5884 5886 5887 5890 5895 5896 5896 5902
5861 5858 5855 5852 5849 5847 5845 5843 5843 5842 5841 5841 5841 5841 5842 5842 5842 5843 5844 5844 5845 5847 5849 5851 5852 5852 5853 5855 5858 5862 5866 5866 5869 5870 5872 5872 5876 5877 5879 5881 5884 5889 5892 5894 5899
5857 5854 5851 5849 5847 5844 5842 5840 5839 5838 5837 5837 5837 5836 5837 5836 5837 5837 5838 5841 5840 5841 5843 5845 5845 5845 5850 5853 5855 5858 5861 5861 5862 5865 5867 5868 5872 5873 5874 5876 5880 5884 5888 5892 5896
5853 5851 5847 5845 5844 5841 5839 5837 5836 5835 5835 5834 5833 5833 5832 5833 5834 5833 5834 5835 5836 5836 5838 5840 5839 5842 5845 5849 5850 5855 5856 5858 5858 5860 5861 5865 5866 5869 5871 5872 5875 5882 5884 5889 5892
5849 5846 5844 5842 5840 5838 5836 5834 5834 5834 5830 5830 5830 5829 5828 5828 5829 5831 5832 5831 5831 5831 5832 5833 5834 5836 5839 5842 5845 5849 5852 5854 5853 5856 5859 5860 5861 5864 5867 5867 5871 5876 5882 5886 5889
5844 5842 5840 5839 5837 5835 5832 5831 5831 5828 5829 5829 5827 5827 5825 5825 5825 5825 5828 5828 5827 5829 5830 5830 5830 5832 5835 5838 5841 5845 5848 5849 5850 5852 5855 5856 5859 5860 5863 5865 5866 5872 5877 5882 5885
5839 5837 5836 5834 5833 5831 5829 5829 5827 5825 5824 5824 5824 5825 5823 5822 5821 5822 5823 5825 5826 5827 5826 5826 5827 5829 5832 5834 5837 5840 5843 5845 5846 5848 5851 5853 5856 5856 5857 5860 5861 5861 5868 5874 5881
5832 5831 5830 5829 5828 5827 5825 5824 5822 5821 5821 5821 5822 5822 5822 5822 5821 5819 5818 5822 5823 5823 5823 5822 5824 5825 5828 5830 5832 5836 5839 5842 5843 5845 5847 5851 5852 5853 5851 5851 5853 5855 5861 5870 5877
5825 5824 5824 5823 5821 5821 5820 5819 5817 5817 5816 5817 5818 5819 5818 5818 5818 5817 5816 5817 5818 5818 5818 5819 5821 5822 5824 5827 5829 5833 5836 5837 5838 5841 5843 5847 5848 5848 5848 5846 5848 5849 5857 5862 5868
5817 5817 5816 5816 5815 5815 5815 5814 5813 5812 5811 5812 5813 5813 5814 5814 5814 5814 5813 5814 5814 5814 5815 5815 5818 5819 5820 5823 5826 5829 5832 5834 5836 5837 5839 5842 5844 5842 5844 5843 5843 5845 5847 5854 5860
5808 5809 5808 5808 5809 5808 5807 5808 5808 5807 5807 5808 5809 5809 5809 5810 5809 5808 5808 5808 5808 5809 5809 5810 5812 5814 5816 5818 5821 5824 5827 5830 5830 5830 5835 5836 5838 5836 5841 5841 5839 5839 5840 5847 5853
5797 5799 5799 5800 5800 5800 5800 5801 5801 5802 5803 5805 5805 5805 5804 5804 5805 5804 5802 5801 5802 5802 5802 5804 5804 5809 5811 5813 5815 5817 5821 5824 5825 5828 5830 5833 5836 5831 5835 5838 5838 5836 5835 5843 5847
5787 5789 5790 5791 5791 5792 5793 5795 5796 5795 5798 5800 5801 5801 5799 5799 5799 5799 5798 5798 5798 5797 5797 5796 5798 5801 5804 5805 5808 5811 5814 5817 5819 5823 5826 5829 5832 5830 5831 5834 5837 5837 5835 5837 5841
5775 5779 5780 5783 5783 5784 5787 5789 5789 5790 5793 5795 5797 5796 5795 5795 5795 5795 5794 5794 5793 5793 5792 5791 5791 5792 5794 5796 5799 5803 5808 5811 5814 5817 5821 5824 5827 5828 5828 5831 5834 5837 5836 5836 5837
5763 5768 5771 5773 5774 5776 5779 5782 5783 5783 5788 5790 5791 5791 5791 5791 5791 5791 5790 5790 5788 5788 5786 5786 5786 5785 5786 5787 5791 5796 5799 5804 5809 5811 5815 5819 5822 5825 5826 5826 5832 5835 5836 5837 5840
5749 5755 5759 5763 5765 5768 5772 5774 5775 5778 5782 5784 5785 5786 5786 5786 5786 5785 5785 5784 5783 5781 5781 5781 5780 5778 5778 5779 5781 5783 5793 5796 5802 5806 5810 5814 5817 5819 5822 5824 5827 5831 5833 5836 5838